TimeMST,TemperatureF,Dew PointF,Humidity,Sea Level PressureIn,VisibilityMPH,Wind Direction,Wind SpeedMPH,Gust SpeedMPH,PrecipitationIn,Events,Conditions,WindDirDegrees,DateUTC
12:53 AM,27.0,23.0,85,30.13,10.0,SSE,5.8,-,N/A,,Partly Cloudy,150,2013-02-07 07:53:00
1:53 AM,28.0,24.1,85,30.11,10.0,Calm,Calm,-,N/A,,Partly Cloudy,0,2013-02-07 08:53:00
2:53 AM,26.1,24.1,92,30.12,10.0,Calm,Calm,-,N/A,,Mostly Cloudy,0,2013-02-07 09:53:00
3:53 AM,27.0,24.1,89,30.08,10.0,Calm,Calm,-,N/A,,Clear,0,2013-02-07 10:53:00
4:53 AM,26.1,24.1,92,30.07,10.0,Calm,Calm,-,N/A,,Overcast,0,2013-02-07 11:53:00
5:53 AM,27.0,24.1,89,30.06,10.0,Calm,Calm,-,N/A,,Partly Cloudy,0,2013-02-07 12:53:00
6:53 AM,24.1,21.9,91,30.08,10.0,West,5.8,-,N/A,,Clear,280,2013-02-07 13:53:00
7:53 AM,24.1,21.9,91,30.08,10.0,Calm,Calm,-,N/A,,Clear,0,2013-02-07 14:53:00
8:53 AM,26.1,23.0,88,30.09,10.0,Calm,Calm,-,N/A,,Mostly Cloudy,0,2013-02-07 15:53:00
9:53 AM,28.9,25.0,85,30.08,10.0,Calm,Calm,-,N/A,,Scattered Clouds,0,2013-02-07 16:53:00
10:53 AM,30.0,25.0,82,30.07,10.0,Calm,Calm,-,N/A,,Clear,0,2013-02-07 17:53:00
11:53 AM,32.0,23.0,69,30.06,10.0,Calm,Calm,-,N/A,,Overcast,0,2013-02-07 18:53:00
12:53 PM,33.1,25.0,72,30.04,10.0,West,3.5,-,N/A,,Overcast,260,2013-02-07 19:53:00
1:53 PM,34.0,25.0,70,30.02,10.0,WNW,4.6,-,N/A,,Overcast,290,2013-02-07 20:53:00
2:53 PM,35.1,25.0,67,30.00,10.0,West,3.5,-,N/A,,Overcast,280,2013-02-07 21:53:00
3:53 PM,35.1,26.1,70,30.00,10.0,WSW,4.6,-,N/A,,Overcast,240,2013-02-07 22:53:00
4:53 PM,35.1,28.0,76,29.99,10.0,WNW,4.6,-,N/A,,Overcast,300,2013-02-07 23:53:00
5:53 PM,33.1,27.0,78,30.00,10.0,West,6.9,-,N/A,,Overcast,270,2013-02-08 00:53:00
6:53 PM,34.0,27.0,75,30.01,10.0,North,3.5,-,N/A,,Mostly Cloudy,360,2013-02-08 01:53:00
7:53 PM,33.1,26.1,75,30.01,10.0,WSW,3.5,-,N/A,,Overcast,250,2013-02-08 02:53:00
8:53 PM,32.0,27.0,82,30.01,10.0,ENE,3.5,-,N/A,,Overcast,60,2013-02-08 03:53:00
9:53 PM,30.9,27.0,85,30.01,10.0,Calm,Calm,-,N/A,,Scattered Clouds,0,2013-02-08 04:53:00
10:53 PM,30.0,25.0,82,30.03,10.0,Calm,Calm,-,N/A,,Scattered Clouds,0,2013-02-08 05:53:00
11:53 PM,30.0,26.1,85,30.04,10.0,Calm,Calm,-,N/A,,Overcast,0,2013-02-08 06:53:00